Location: Petruro
(41.0333°N, 14.7833°E)
Time: 14:41:10
(UTC+00:00)

TIMED - Pass Details

Date: 20 June 2021
Orbit: 602 x 604 km, 74.1° (Epoch: 29 July)

Event Time Altitude Azimuth Distance (km) Brightness Sun altitude
Exits shadow 00:56:29 54° 222° (SW) 737 4.5 -20.3°
Maximum altitude 00:57:23 75° 289° (WNW) 629 4.5 -20.2°
Drops below altitude 10° 01:01:45 10° 16° (NNE) 1,956 8.3 -19.8°
Sets 01:04:00 0° 18° (NNE) 2,864 9.5 -19.6°
